Regional Weather Roundup
Issued by NWS Mobile, AL

Home | Current Version | Previous Version | Text Only | Print | Product List | Glossary On
Versions: 1 2 3 4 5 6 7 8 9 10 11 12 13 14 15 16 17 18 19 20 21 22 23 24 25 26 27 28 29 30 31 32 33 34 35 36 37 38 39 40 41 42 43 44 45 46 47 48 49 50
000
ASUS44 KMOB 050916
RWRMOB
REGIONAL WEATHER ROUNDUP
NATIONAL WEATHER SERVICE MOBILE AL
400 AM CDT TUE MAY 05 2015

ALZ061>064-051000-
COASTAL ALABAMA


CITY           SKY/WX    TMP DP  RH WIND       PRES   REMARKS
MOBILE REG APT CLEAR     62  60  93 CALM      30.18R
BROOKLEY FIELD CLEAR     63  61  93 CALM      30.19R
GULF SHORES    MOSUNNY   59  59  99 CALM      30.17R

$$

ALZ051>060-051000-
INTERIOR SOUTHWEST AND SOUTH CENTRAL ALABAMA


CITY           SKY/WX    TMP DP  RH WIND       PRES   REMARKS
ANDALUSIA/OPP  CLEAR     62  56  80 CALM      30.21R
EVERGREEN      CLEAR     54  53  97 CALM      30.21R
FLORALA        SUNNY     61  57  87 CALM      30.23R
GREENVILLE     FAIR      59  52  77 CALM      30.22R

$$

FLZ001>006-051000-
WESTERN FLORIDA PANHANDLE


CITY           SKY/WX    TMP DP  RH WIND       PRES   REMARKS
CRESTVIEW      CLEAR     55  53  93 CALM      30.21R
DESTIN         PTCLDY    69  62  78 E7        30.18S
DUKE FIELD     FAIR      55  53  92 NE2       30.19R
MARY ESTHER    NOT AVBL
MILTON         SUNNY     61  56  83 NE6       30.19R
PENSACOLA      CLEAR     64  61  90 NE6       30.18R
NAS PENSACOLA  CLEAR     61  60  97 NE3       30.17R FOG
VALPARAISO     MOCLDY    64  57  79 CALM      30.18S

$$

...MARINE OBSERVATIONS...

STATION/POSITION TIME  SKY/WX   TEMP    WIND        PRES    VSBY
                                AIR SEA DIR/SP/G
                 (UTC)          (F)     (DEG/KT/KT) (MB)    (MI)
PASCAGOULA       0800            70      80/  4/  5 1020.9S
PETIT BOIS ISL   0800            72     110/  6/  8 1021.4S
E DAUPHIN ISLAND 0900            72     100/  7/  8 1021.1R
MIDDLE BAY LIGHT 0800            70      90/  8     1021.0S
USCG MOBILE BAY  0800            68 74   60/  1/  2 1020.5S
STATE DOCKS      0800            66 70              1021.3S
MEAHER PARK      0900            63     360/  3     1022.0R
FORT MORGAN      0800            72     130/  8/  9 1020.8F
12 S ORANGE BCH  0850            73 75   70/ 10/ 12 1020.6R
WVE H/P(F/S)=  4/ 7

PENSACOLA BAY    0800            71 76   30/  4/  6 1021.8F
64 S DAUPHIN ISL 0850            75 75  120/ 16/ 17 1020.6F
WVE H/P(F/S)=  7/ 8

67 S FORT MORGAN 0830            74                 1020.3S
115 SE PENSACOLA 0850            74 75  100/ 17/ 21 1020.5R
WVE H/P(F/S)=  4/ 6

MID GULF/42001   0850            78 79  100/ 19/ 21 1017.1F
WVE H/P(F/S)=  7/ 9

EAST GULF/42003  0850            77 80   90/ 12/ 16 1017.6S
WVE H/P(F/S)=  6/ 8


$$

...NEARBY LOCATIONS

CITY           SKY/WX    TMP DP  RH WIND       PRES   REMARKS
GULFPORT       CLEAR     64  60  87 NE5       30.15S
BILOXI         CLEAR     64  62  93 E7        30.15S
PASCAGOULA     CLEAR     56  56 100 CALM      30.17R FOG
HATTIESBURG    CLEAR     57  55  93 CALM      30.19R
LAUREL         CLEAR     57  54  88 CALM      30.19S
MERIDIAN       CLEAR     56  54  93 CALM      30.21R
MERIDIAN NAS   CLEAR     57  53  86 CALM      30.22R
MONTGOMERY     CLEAR     60  54  80 CALM      30.23R
MAXWELL AFB    CLEAR     59  57  95 N2        30.22R
TROY           CLEAR     60  54  80 NE5       30.23R
FORT RUCKER    CLEAR     58  55  90 N3        30.21R
DALEVILLE      CLEAR     60  55  81 E6        30.21S
DOTHAN         CLEAR     63  55  75 E3        30.25S

$$

...OTHER SURROUNDING LOCATIONS...

CITY           SKY/WX    TMP DP  RH WIND       PRES   REMARKS
BIRMINGHAM     CLEAR     59  55  87 CALM      30.27R
TUSCALOOSA     CLEAR     58  56  93 CALM      30.23R FOG
COLUMBUS GA    CLEAR     61  54  77 CALM      30.26R
PANAMA CITY    NOT AVBL
TALLAHASSEE    CLEAR     66  57  72 NE3       30.20S
BATON ROUGE    CLEAR     63  61  93 E6        30.12S
NEW ORLEANS    CLEAR     69  61  75 E6        30.13S
SLIDELL        CLEAR     58  58 100 CALM      30.14S
JACKSON        CLEAR     61  58  90 CALM      30.18S
MCCOMB         CLEAR     63  61  93 E6        30.16S

$$

...SURROUNDING MARINE OBSERVATIONS...

STATION/POSITION TIME  SKY/WX   TEMP    WIND        PRES    VSBY
                                AIR SEA DIR/SP/G
                 (UTC)          (F)     (DEG/KT/KT) (MB)    (MI)
WAVELAND         0800            74 74  140/ 11/ 14 1020.6F
PASCAGOULA RGN A 0800            73     120/  8/ 10 1020.6F
PASCAGOULA PORT  0800               77                N/A
GRAND ISLE       0800            74 76  120/  8/ 13 1019.4F
SOUTHWEST PASS   0900            75     110/ 21/ 24 1019.7S
PILOT STATION E  0800            74 66  110/ 20/ 23 1020.1F
SHELL BEACH      0800            71 75  130/ 10/ 12 1019.8F
PANAMA CITY      0800            67 76   80/  5/  9 1021.5F
APALACHICOLA     0800            72 71  110/ 10/ 12 1021.5F
TYNDALL TOWER C  0900            72     100/ 18/ 19 1021.3F
S APLCHCLA/42036 0850            73 75   90/ 16/ 19 1020.2F
WVE H/P(F/S)=  6/ 6


$$




USA.gov is the U.S. government's official web portal to all federal, state and local government web resources and services.